Accueil
METAR-TAF:

METAR-TAF

Aéroports :

Aéroport de Saint-Brieuc Armor

Saint-Brieuc, France

latitude: 48-32N, longitude: 002-51W, altitude: 138 m

Observation

Le bulletin a été fait il y a 1 heure et 11 minutes, à 21:00 UTC
Vent calme
Température 16°C
Humidité 94%
Pression 1020 hPa
Visibilité 10 km ou plus
Nuages fragmentés à une hauteur de 500 ft

METAR: LFRT 212100Z AUTO 00000KT 9999 BKN005 16/15 Q1020

Heure: 00:11 (22:11 UTC)


TAF: absent

Observations et prévisions météorologiques de plus de 4000 aéroports (messages METAR et TAF).

Les stations disponibles sont représentées par des disques jaunes et rouges sur la carte.

Passer la souris dessus pour voir le nom de la station.

Cliquer dessus pour voir les observations et prévisions météorologiques.

Pour changer de carte: cliquez sur les boutons verts avec une croix noire pour zoomer, sur le bouton vert avec un tiret pour effectuer un zoom arrière, ou sur les flèches vertes pour les cartes adjacentes.


METAR-TAF: